UTA7775 USRO-USRR

Flight info

Callsign UTA7775
Flight time 0h 43m
Altitude 20000
Route DINOL2G DINOL T797 INDUS INDUS1L
Aircraft AT76/M-SDFGIRY/S

Departure

Time 2026-04-20 13:34
Airport Noyabrsk Airport (USRO)

Arrival

Time 2026-04-20 14:18
Airport Surgut International Airport (USRR)
Time Latitude Longitude Altitude Speed Heading
2026-04-20 13:29 63.18311 75.27303 455 ft 0 kts 204°
2026-04-20 13:32 63.18281 75.27226 451 ft 9 kts 268°
2026-04-20 13:32 63.18303 75.27100 453 ft 9 kts 295°
2026-04-20 13:33 63.18330 75.26977 453 ft 9 kts 296°
2026-04-20 13:33 63.18358 75.26898 454 ft 1 kts 337°
2026-04-20 13:33 63.18376 75.26889 454 ft 0 kts
2026-04-20 13:33 63.18545 75.27053 451 ft 60 kts 25°
2026-04-20 13:34 63.19109 75.27639 435 ft 115 kts 25°
2026-04-20 13:34 63.19898 75.28470 659 ft 134 kts 28°
2026-04-20 13:34 63.20595 75.30053 921 ft 155 kts 60°
2026-04-20 13:34 63.20897 75.32393 1480 ft 161 kts 84°
2026-04-20 13:35 63.20595 75.34737 2054 ft 165 kts 130°
2026-04-20 13:35 63.19561 75.35743 2648 ft 168 kts 183°
2026-04-20 13:35 63.18534 75.34678 3230 ft 166 kts 234°
2026-04-20 13:35 63.18051 75.32412 3811 ft 164 kts 250°
2026-04-20 13:36 63.17540 75.30122 4380 ft 168 kts 241°
2026-04-20 13:36 63.16858 75.28001 4970 ft 170 kts 233°
2026-04-20 13:36 63.16069 75.26014 5543 ft 173 kts 228°
2026-04-20 13:36 63.15223 75.24104 6122 ft 174 kts 225°
2026-04-20 13:37 63.14331 75.22259 6664 ft 179 kts 222°
2026-04-20 13:37 63.13351 75.20352 6928 ft 196 kts 221°
2026-04-20 13:37 63.12274 75.18331 7171 ft 209 kts 221°
2026-04-20 13:37 63.11169 75.16111 7367 ft 222 kts 223°
2026-04-20 13:38 63.10011 75.13753 7654 ft 225 kts 223°
2026-04-20 13:38 63.08912 75.11559 8415 ft 210 kts 222°
2026-04-20 13:38 63.07815 75.09437 8917 ft 209 kts 221°
2026-04-20 13:38 63.06711 75.07353 9441 ft 208 kts 221°
2026-04-20 13:39 63.05609 75.05300 9978 ft 207 kts 221°
2026-04-20 13:39 63.04512 75.03263 10493 ft 206 kts 221°
2026-04-20 13:39 63.03412 75.01241 10989 ft 205 kts 221°
2026-04-20 13:39 63.02310 74.99243 11497 ft 205 kts 221°
2026-04-20 13:40 63.01196 74.97271 12005 ft 205 kts 220°
2026-04-20 13:40 63.00089 74.95305 12533 ft 205 kts 221°
2026-04-20 13:40 62.98984 74.93322 13057 ft 205 kts 221°
2026-04-20 13:40 62.97874 74.91345 13601 ft 205 kts 221°
2026-04-20 13:41 62.96759 74.89373 14146 ft 205 kts 221°
2026-04-20 13:41 62.95641 74.87411 14634 ft 205 kts 221°
2026-04-20 13:41 62.94521 74.85470 15129 ft 205 kts 221°
2026-04-20 13:41 62.93395 74.83545 15621 ft 205 kts 221°
2026-04-20 13:42 62.92260 74.81639 16122 ft 205 kts 221°
2026-04-20 13:42 62.89979 74.77911 17171 ft 204 kts 221°
2026-04-20 13:42 62.88850 74.76118 17694 ft 203 kts 221°
2026-04-20 13:43 62.87703 74.74332 18246 ft 201 kts 221°
2026-04-20 13:43 62.86564 74.72591 18770 ft 199 kts 221°
2026-04-20 13:43 62.85422 74.70887 19243 ft 198 kts 221°
2026-04-20 13:43 62.84282 74.69208 19734 ft 196 kts 221°
2026-04-20 13:44 62.83117 74.67496 19921 ft 211 kts 221°
2026-04-20 13:44 62.81899 74.65658 19953 ft 211 kts 222°
2026-04-20 13:44 62.80678 74.63818 19976 ft 217 kts 221°
2026-04-20 13:44 62.79422 74.61939 19984 ft 221 kts 221°
2026-04-20 13:45 62.78155 74.59983 19984 ft 221 kts 228°
2026-04-20 13:45 62.77170 74.57451 19984 ft 221 kts 236°
2026-04-20 13:45 62.76114 74.54923 19983 ft 228 kts 230°
2026-04-20 13:45 62.74934 74.52554 19984 ft 233 kts 227°
2026-04-20 13:46 62.73668 74.50287 19983 ft 238 kts 224°
2026-04-20 13:46 62.72337 74.48098 19984 ft 241 kts 222°
2026-04-20 13:46 62.70995 74.45907 19983 ft 242 kts 224°
2026-04-20 13:46 62.69679 74.43612 19982 ft 243 kts 225°
2026-04-20 13:47 62.68350 74.41298 19984 ft 245 kts 224°
2026-04-20 13:47 62.67004 74.39015 19984 ft 246 kts 223°
2026-04-20 13:47 62.65631 74.36754 19983 ft 248 kts 223°
2026-04-20 13:47 62.64265 74.34544 19983 ft 246 kts 224°
2026-04-20 13:48 62.62967 74.32116 19981 ft 247 kts 226°
2026-04-20 13:48 62.61643 74.29725 19982 ft 247 kts 225°
2026-04-20 13:48 62.60318 74.27332 19975 ft 248 kts 225°
2026-04-20 13:48 62.58997 74.24924 19975 ft 248 kts 226°
2026-04-20 13:49 62.57677 74.22511 19980 ft 248 kts 226°
2026-04-20 13:49 62.56355 74.20089 19981 ft 249 kts 226°
2026-04-20 13:49 62.55032 74.17665 19981 ft 249 kts 226°
2026-04-20 13:49 62.53711 74.15243 19980 ft 249 kts 226°
2026-04-20 13:50 62.52290 74.13100 19973 ft 252 kts 213°
2026-04-20 13:50 62.50687 74.11550 19975 ft 255 kts 205°
2026-04-20 13:50 62.49040 74.10305 19968 ft 245 kts 219°
2026-04-20 13:50 62.47928 74.07691 19984 ft 234 kts 243°
2026-04-20 13:51 62.46975 74.04829 19958 ft 238 kts 234°
2026-04-20 13:51 62.45766 74.02295 19894 ft 245 kts 227°
2026-04-20 13:51 62.44419 73.99978 19849 ft 249 kts 223°
2026-04-20 13:51 62.42993 73.97817 19883 ft 250 kts 220°
2026-04-20 13:52 62.41581 73.95691 19933 ft 246 kts 223°
2026-04-20 13:52 62.40195 73.93516 19955 ft 246 kts 223°
2026-04-20 13:52 62.38824 73.91388 19966 ft 246 kts 222°
2026-04-20 13:52 62.37401 73.89242 19971 ft 247 kts 221°
2026-04-20 13:53 62.35982 73.87163 19976 ft 247 kts 220°
2026-04-20 13:53 62.34546 73.85106 19977 ft 248 kts 220°
2026-04-20 13:53 62.33095 73.83046 19685 ft 259 kts 219°
2026-04-20 13:53 62.31579 73.80914 19593 ft 261 kts 219°
2026-04-20 13:54 62.30045 73.78768 19231 ft 262 kts 219°
2026-04-20 13:54 62.28519 73.76634 18767 ft 261 kts 219°
2026-04-20 13:54 62.26994 73.74519 18278 ft 261 kts 218°
2026-04-20 13:54 62.25471 73.72414 17759 ft 260 kts 218°
2026-04-20 13:55 62.23978 73.70253 17247 ft 259 kts 219°
2026-04-20 13:55 62.22500 73.68057 16748 ft 258 kts 219°
2026-04-20 13:55 62.21021 73.65871 16254 ft 258 kts 218°
2026-04-20 13:55 62.20040 73.64431 15934 ft 258 kts 218°
2026-04-20 13:56 62.18613 73.62123 15449 ft 255 kts 224°
2026-04-20 13:56 62.17276 73.59634 14973 ft 255 kts 224°
2026-04-20 13:56 62.15905 73.57203 14501 ft 255 kts 220°
2026-04-20 13:56 62.14416 73.55132 14035 ft 255 kts 212°
2026-04-20 13:57 62.12878 73.53230 13519 ft 255 kts 212°
2026-04-20 13:57 62.11351 73.51295 13012 ft 255 kts 213°
2026-04-20 13:57 62.09874 73.49307 12522 ft 254 kts 214°
2026-04-20 13:57 62.08418 73.47227 12210 ft 251 kts 216°
2026-04-20 13:58 62.06969 73.45086 12085 ft 256 kts 216°
2026-04-20 13:58 62.05505 73.42853 12021 ft 258 kts 217°
2026-04-20 13:58 62.04096 73.40586 11995 ft 250 kts 219°
2026-04-20 13:58 62.02752 73.38306 11983 ft 243 kts 220°
2026-04-20 13:59 62.01453 73.36063 11979 ft 238 kts 221°
2026-04-20 13:59 62.00192 73.33834 11972 ft 234 kts 221°
2026-04-20 13:59 61.98947 73.31652 11970 ft 230 kts 220°
2026-04-20 13:59 61.97707 73.29529 11970 ft 227 kts 218°
2026-04-20 14:00 61.96282 73.28201 11971 ft 224 kts 195°
2026-04-20 14:00 61.94764 73.27506 11968 ft 223 kts 192°
2026-04-20 14:00 61.93220 73.26977 11788 ft 231 kts 190°
2026-04-20 14:00 61.91603 73.26516 11440 ft 235 kts 189°
2026-04-20 14:01 61.90051 73.26117 11179 ft 214 kts 188°
2026-04-20 14:01 61.88564 73.25752 10935 ft 225 kts 187°
2026-04-20 14:01 61.87016 73.25392 10685 ft 214 kts 188°
2026-04-20 14:01 61.85602 73.25013 10445 ft 196 kts 189°
2026-04-20 14:02 61.84310 73.24527 10228 ft 183 kts 191°
2026-04-20 14:02 61.83077 73.24030 10007 ft 179 kts 191°
2026-04-20 14:02 61.81866 73.23557 9793 ft 175 kts 190°
2026-04-20 14:02 61.80679 73.23126 9582 ft 171 kts 189°
2026-04-20 14:03 61.79517 73.22733 9381 ft 167 kts 188°
2026-04-20 14:03 61.78395 73.22370 9186 ft 163 kts 187°
2026-04-20 14:03 61.77269 73.22032 8993 ft 159 kts 187°
2026-04-20 14:03 61.76198 73.21727 8810 ft 156 kts 186°
2026-04-20 14:04 61.75139 73.21423 8632 ft 152 kts 186°
2026-04-20 14:04 61.74106 73.21145 8455 ft 147 kts 185°
2026-04-20 14:04 61.73108 73.20825 8292 ft 147 kts 193°
2026-04-20 14:04 61.72038 73.20132 8136 ft 171 kts 195°
2026-04-20 14:05 61.70807 73.19385 7982 ft 196 kts 192°
2026-04-20 14:05 61.69526 73.18743 7840 ft 186 kts 189°
2026-04-20 14:05 61.68241 73.18234 7554 ft 191 kts 188°
2026-04-20 14:05 61.66909 73.17813 7244 ft 196 kts 186°
2026-04-20 14:06 61.65539 73.17457 6931 ft 200 kts 184°
2026-04-20 14:06 61.64144 73.17164 6617 ft 203 kts 183°
2026-04-20 14:06 61.62727 73.16902 6277 ft 206 kts 182°
2026-04-20 14:06 61.61336 73.16638 5931 ft 192 kts 183°
2026-04-20 14:07 61.60048 73.16302 5578 ft 182 kts 186°
2026-04-20 14:07 61.58808 73.15896 5162 ft 179 kts 187°
2026-04-20 14:07 61.57607 73.15529 4747 ft 175 kts 185°
2026-04-20 14:07 61.56405 73.15176 4329 ft 173 kts 185°
2026-04-20 14:08 61.55212 73.14855 3925 ft 172 kts 184°
2026-04-20 14:08 61.54023 73.14563 3516 ft 171 kts 184°
2026-04-20 14:08 61.52839 73.14301 3105 ft 171 kts 183°
2026-04-20 14:08 61.51656 73.14053 2694 ft 170 kts 182°
2026-04-20 14:09 61.50472 73.13816 2278 ft 170 kts 182°
2026-04-20 14:09 61.49306 73.13591 1994 ft 165 kts 182°
2026-04-20 14:09 61.48186 73.13376 1881 ft 157 kts 182°
2026-04-20 14:09 61.47144 73.13161 1827 ft 147 kts 181°
2026-04-20 14:10 61.46134 73.12981 1811 ft 146 kts 180°
2026-04-20 14:10 61.45135 73.12702 1795 ft 144 kts 201°
2026-04-20 14:10 61.44447 73.11255 1807 ft 144 kts 236°
2026-04-20 14:10 61.43602 73.10125 1822 ft 153 kts 183°
2026-04-20 14:11 61.42643 73.09990 1810 ft 124 kts 179°
2026-04-20 14:11 61.41849 73.09858 1798 ft 112 kts 179°
2026-04-20 14:11 61.41045 73.09752 1810 ft 119 kts 178°
2026-04-20 14:11 61.40195 73.09673 1802 ft 125 kts 178°
2026-04-20 14:12 61.39317 73.09596 1800 ft 128 kts 178°
2026-04-20 14:12 61.38422 73.09526 1799 ft 129 kts 177°
2026-04-20 14:12 61.37531 73.09463 1799 ft 131 kts 177°
2026-04-20 14:12 61.36620 73.09399 1798 ft 131 kts 177°
2026-04-20 14:13 61.35710 73.09398 1789 ft 129 kts 163°
2026-04-20 14:13 61.35142 73.10560 1777 ft 115 kts 95°
2026-04-20 14:13 61.35347 73.12093 1786 ft 109 kts 73°
2026-04-20 14:13 61.35087 73.13556 1791 ft 115 kts 123°
2026-04-20 14:14 61.34652 73.14951 1791 ft 115 kts 114°
2026-04-20 14:14 61.34298 73.16445 1795 ft 115 kts 109°
2026-04-20 14:14 61.33980 73.17988 1794 ft 116 kts 108°
2026-04-20 14:14 61.33669 73.19548 1789 ft 117 kts 108°
2026-04-20 14:15 61.33341 73.21094 1787 ft 117 kts 114°
2026-04-20 14:15 61.32942 73.22568 1790 ft 116 kts 113°
2026-04-20 14:15 61.32623 73.24082 1791 ft 115 kts 104°
2026-04-20 14:15 61.32618 73.25708 1728 ft 115 kts 78°
2026-04-20 14:16 61.32888 73.27287 1542 ft 121 kts 52°
2026-04-20 14:16 61.33492 73.28643 1178 ft 131 kts 49°
2026-04-20 14:16 61.34037 73.30190 866 ft 134 kts 58°
2026-04-20 14:16 61.34341 73.31882 649 ft 120 kts 78°
2026-04-20 14:17 61.34364 73.33508 520 ft 107 kts 87°
2026-04-20 14:17 61.34362 73.34939 470 ft 94 kts 87°
2026-04-20 14:17 61.34368 73.36298 333 ft 94 kts 86°
2026-04-20 14:17 61.34375 73.37650 198 ft 92 kts 88°
2026-04-20 14:18 61.34373 73.38903 116 ft 73 kts 89°
2026-04-20 14:18 61.34376 73.39246 119 ft 1 kts 88°
2026-04-20 14:18 61.34375 73.39170 118 ft 10 kts 89°
2026-04-20 14:18 61.34375 73.39143 118 ft 0 kts 89°